When you browse on this site, cookies collect data to enhance your experience and personalize the content and advertising you see.
Visit our Privacy Policy to learn more. By continuing to use the site, you agree to this use of cookies and data.
  • In Österreich
  • Länderverzeichnis
  • Für 7 Tage
  • Wassertemperatur
  • Satellitenkarten
  • Wetterkarte
  • News
  • Widgets
  • user-avatar
    Anmelden

    Stündliche Wetter Grabovo

    Heute, 17 Juli, Mittwoch

    Zeit Temperatur Niederschläge Wind Luftdruck Luftfeuchtigkeit
    00:00 +14°C° 0.3 mm 2 m/S 742 mmHg 93%
    01:00 +13°C° 0.3 mm 3 m/S 742 mmHg 93%
    02:00 +12°C° 0.3 mm 3 m/S 742 mmHg 94%
    03:00 +12°C° 0 mm 3 m/S 742 mmHg 95%
    04:00 +11°C° 0 mm 3 m/S 742 mmHg 96%
    05:00 +10°C° 0 mm 3 m/S 742 mmHg 98%
    06:00 +11°C° 0 mm 3 m/S 742 mmHg 96%
    07:00 +12°C° 0 mm 3 m/S 742 mmHg 94%
    08:00 +13°C° 0 mm 4 m/S 742 mmHg 93%
    09:00 +14°C° 0.1 mm 3 m/S 742 mmHg 87%
    10:00 +16°C° 0.1 mm 3 m/S 742 mmHg 81%
    11:00 +17°C° 0.1 mm 3 m/S 742 mmHg 75%
    12:00 +17°C° 1 mm 3 m/S 742 mmHg 76%
    13:00 +18°C° 1 mm 3 m/S 741 mmHg 77%
    14:00 +18°C° 1 mm 4 m/S 741 mmHg 79%
    15:00 +18°C° 0.6 mm 4 m/S 741 mmHg 79%
    16:00 +18°C° 0.6 mm 3 m/S 741 mmHg 79%
    17:00 +18°C° 0.6 mm 3 m/S 741 mmHg 79%
    18:00 +16°C° 0.6 mm 3 m/S 741 mmHg 83%
    19:00 +15°C° 0.6 mm 2 m/S 741 mmHg 88%
    20:00 +14°C° 0.6 mm 2 m/S 741 mmHg 92%
    21:00 +13°C° 0 mm 2 m/S 741 mmHg 93%
    22:00 +13°C° 0 mm 2 m/S 741 mmHg 94%
    23:00 +13°C° 0 mm 2 m/S 741 mmHg 95%

    Morgen, 18 Juli, Donnerstag

    Zeit Temperatur Niederschläge Wind Luftdruck Luftfeuchtigkeit
    00:00 +11°C° 0 mm 3 m/S 741 mmHg 95%
    01:00 +11°C° 0 mm 3 m/S 741 mmHg 96%
    02:00 +11°C° 0 mm 3 m/S 741 mmHg 97%
    03:00 +11°C° 0 mm 3 m/S 741 mmHg 97%
    04:00 +11°C° 0 mm 4 m/S 742 mmHg 97%
    05:00 +11°C° 0 mm 4 m/S 742 mmHg 98%
    06:00 +12°C° 0 mm 4 m/S 742 mmHg 96%
    07:00 +13°C° 0 mm 4 m/S 742 mmHg 94%
    08:00 +14°C° 0 mm 4 m/S 742 mmHg 93%
    09:00 +14°C° 0.1 mm 4 m/S 742 mmHg 93%
    10:00 +14°C° 0.1 mm 4 m/S 743 mmHg 93%
    11:00 +14°C° 0.1 mm 4 m/S 743 mmHg 92%
    12:00 +15°C° 0.2 mm 4 m/S 743 mmHg 88%
    13:00 +18°C° 0.2 mm 4 m/S 743 mmHg 83%
    14:00 +20°C° 0.2 mm 4 m/S 743 mmHg 78%
    15:00 +19°C° 0.8 mm 4 m/S 743 mmHg 80%
    16:00 +19°C° 0.8 mm 4 m/S 743 mmHg 82%
    17:00 +19°C° 0.8 mm 4 m/S 743 mmHg 84%
    18:00 +18°C° 0.2 mm 4 m/S 744 mmHg 87%
    19:00 +18°C° 0.2 mm 3 m/S 744 mmHg 90%
    20:00 +17°C° 0.2 mm 3 m/S 744 mmHg 93%
    21:00 +16°C° 0 mm 3 m/S 744 mmHg 94%
    22:00 +14°C° 0 mm 3 m/S 745 mmHg 95%
    23:00 +14°C° 0 mm 3 m/S 745 mmHg 96%

    übermorgen, 19 Juli, Freitag

    Zeit Temperatur Niederschläge Wind Luftdruck Luftfeuchtigkeit
    00:00 +13°C° 0 mm 3 m/S 745 mmHg 96%
    01:00 +13°C° 0 mm 3 m/S 745 mmHg 96%
    02:00 +12°C° 0 mm 3 m/S 745 mmHg 96%
    03:00 +12°C° 0 mm 3 m/S 746 mmHg 96%
    04:00 +12°C° 0 mm 3 m/S 746 mmHg 95%
    05:00 +12°C° 0 mm 3 m/S 746 mmHg 95%
    06:00 +13°C° 0 mm 3 m/S 746 mmHg 90%
    07:00 +16°C° 0 mm 3 m/S 747 mmHg 84%
    08:00 +17°C° 0 mm 3 m/S 747 mmHg 79%
    09:00 +19°C° 0 mm 3 m/S 747 mmHg 71%
    10:00 +21°C° 0 mm 4 m/S 747 mmHg 62%
    11:00 +22°C° 0 mm 4 m/S 747 mmHg 54%
    12:00 +23°C° 0.2 mm 4 m/S 747 mmHg 57%
    13:00 +23°C° 0.2 mm 4 m/S 747 mmHg 59%
    14:00 +23°C° 0.2 mm 4 m/S 747 mmHg 62%
    15:00 +24°C° 0.1 mm 3 m/S 747 mmHg 61%
    16:00 +24°C° 0.1 mm 3 m/S 747 mmHg 59%
    17:00 +24°C° 0.1 mm 3 m/S 747 mmHg 57%
    18:00 +21°C° 0.1 mm 2 m/S 747 mmHg 66%
    19:00 +20°C° 0.1 mm 2 m/S 747 mmHg 75%
    20:00 +19°C° 0.1 mm 1 m/S 747 mmHg 85%
    21:00 +18°C° 0 mm 1 m/S 748 mmHg 87%
    22:00 +16°C° 0 mm 1 m/S 748 mmHg 89%
    23:00 +15°C° 0 mm 1 m/S 748 mmHg 92%

    20 Juli, Samstag

    Zeit Temperatur Niederschläge Wind Luftdruck Luftfeuchtigkeit
    00:00 +15°C° 0 mm 1 m/S 748 mmHg 92%
    01:00 +14°C° 0 mm 1 m/S 748 mmHg 92%
    02:00 +14°C° 0 mm 1 m/S 748 mmHg 93%
    03:00 +14°C° 0 mm 1 m/S 749 mmHg 93%
    04:00 +14°C° 0 mm 1 m/S 749 mmHg 93%
    05:00 +14°C° 0 mm 1 m/S 749 mmHg 94%
    06:00 +16°C° 0 mm 1 m/S 749 mmHg 86%
    07:00 +19°C° 0 mm 1 m/S 749 mmHg 79%
    08:00 +21°C° 0 mm 1 m/S 750 mmHg 71%
    09:00 +21°C° 0 mm 2 m/S 750 mmHg 65%
    10:00 +23°C° 0 mm 2 m/S 750 mmHg 59%
    11:00 +25°C° 0 mm 2 m/S 750 mmHg 53%
    12:00 +25°C° 0 mm 2 m/S 750 mmHg 51%
    13:00 +26°C° 0 mm 2 m/S 750 mmHg 49%
    14:00 +26°C° 0 mm 2 m/S 750 mmHg 47%
    15:00 +26°C° 0 mm 2 m/S 750 mmHg 50%
    16:00 +26°C° 0 mm 2 m/S 750 mmHg 53%
    17:00 +25°C° 0 mm 2 m/S 750 mmHg 55%
    18:00 +23°C° 0 mm 2 m/S 750 mmHg 63%
    19:00 +22°C° 0 mm 1 m/S 750 mmHg 71%
    20:00 +20°C° 0 mm 1 m/S 750 mmHg 79%
    21:00 +19°C° 0 mm 1 m/S 751 mmHg 80%
    22:00 +18°C° 0 mm 1 m/S 751 mmHg 82%
    23:00 +15°C° 0 mm 0 m/S 751 mmHg 83%

    21 Juli, Sonntag

    Zeit Temperatur Niederschläge Wind Luftdruck Luftfeuchtigkeit
    00:00 +15°C° 0 mm 0 m/S 751 mmHg 84%
    01:00 +14°C° 0 mm 0 m/S 751 mmHg 85%
    02:00 +14°C° 0 mm 0 m/S 751 mmHg 86%
    03:00 +14°C° 0 mm 0 m/S 752 mmHg 86%
    04:00 +13°C° 0 mm 0 m/S 752 mmHg 86%
    05:00 +13°C° 0 mm 0 m/S 752 mmHg 86%
    06:00 +16°C° 0 mm 1 m/S 752 mmHg 79%
    07:00 +20°C° 0 mm 1 m/S 752 mmHg 71%
    08:00 +22°C° 0 mm 1 m/S 752 mmHg 64%
    09:00 +23°C° 0 mm 1 m/S 752 mmHg 59%
    10:00 +24°C° 0 mm 1 m/S 752 mmHg 54%
    11:00 +26°C° 0 mm 2 m/S 753 mmHg 48%
    12:00 +26°C° 0 mm 2 m/S 752 mmHg 48%
    13:00 +27°C° 0 mm 2 m/S 752 mmHg 48%
    14:00 +27°C° 0 mm 3 m/S 752 mmHg 47%
    15:00 +27°C° 0 mm 3 m/S 752 mmHg 50%
    16:00 +26°C° 0 mm 2 m/S 752 mmHg 53%
    17:00 +26°C° 0 mm 2 m/S 752 mmHg 56%
    18:00 +24°C° 0 mm 2 m/S 752 mmHg 61%
    19:00 +21°C° 0 mm 2 m/S 752 mmHg 67%
    20:00 +20°C° 0 mm 1 m/S 752 mmHg 73%
    21:00 +20°C° 0 mm 1 m/S 752 mmHg 75%
    22:00 +19°C° 0 mm 1 m/S 752 mmHg 77%
    23:00 +18°C° 0 mm 1 m/S 752 mmHg 79%

    22 Juli, Montag

    Zeit Temperatur Niederschläge Wind Luftdruck Luftfeuchtigkeit
    00:00 +18°C° 0 mm 1 m/S 752 mmHg 81%
    01:00 +16°C° 0 mm 1 m/S 752 mmHg 83%
    02:00 +15°C° 0 mm 0 m/S 752 mmHg 85%
    03:00 +15°C° 0 mm 0 m/S 752 mmHg 85%
    04:00 +15°C° 0 mm 0 m/S 752 mmHg 85%
    05:00 +16°C° 0 mm 1 m/S 752 mmHg 85%
    06:00 +19°C° 0 mm 1 m/S 752 mmHg 79%
    07:00 +21°C° 0 mm 1 m/S 752 mmHg 74%
    08:00 +23°C° 0 mm 1 m/S 752 mmHg 68%
    09:00 +23°C° 0 mm 1 m/S 752 mmHg 66%
    10:00 +24°C° 0 mm 1 m/S 752 mmHg 63%
    11:00 +25°C° 0 mm 1 m/S 752 mmHg 61%
    12:00 +25°C° 0 mm 1 m/S 751 mmHg 63%
    13:00 +24°C° 0 mm 2 m/S 751 mmHg 65%
    14:00 +24°C° 0 mm 2 m/S 751 mmHg 67%
    15:00 +25°C° 0 mm 2 m/S 750 mmHg 65%
    16:00 +26°C° 0 mm 3 m/S 750 mmHg 62%
    17:00 +26°C° 0 mm 3 m/S 750 mmHg 60%
    18:00 +25°C° 0.3 mm 3 m/S 749 mmHg 68%
    19:00 +22°C° 0.3 mm 3 m/S 749 mmHg 76%
    20:00 +20°C° 0.3 mm 2 m/S 749 mmHg 84%
    21:00 +19°C° 0.3 mm 2 m/S 749 mmHg 87%
    22:00 +19°C° 0.3 mm 2 m/S 749 mmHg 90%
    23:00 +18°C° 0.3 mm 2 m/S 748 mmHg 93%
    Mehr zeigen